Back to catalog

COSMOS 1275 DEB

AlivePO
NORAD 12758·DEBRIS·🇷🇺 Russia

Launched Jun 4, 1981 from Plesetsk Cosmodrome

Loading…

Next Passes (next 24 hours)

TLE

FreshSource: Space-Track

Epoch: Sep 14, 2026, 08:04 UTC

1 12758U 81053DB  26257.33626640  .00000415  00000-0  36593-3 0  9991
2 12758  82.8646  18.5111 0055252 310.3674  77.8178 13.82370809263986

Track COSMOS 1275 DEB in real time with AllMySat

Download on the App Store